Вернуться в каталог

KUIPER-00028

АктивенСвязьLEO
NORAD 63741·PAYLOAD·🇺🇸 United States

Запущен Apr 28, 2025 с Cape Canaveral Space Force Station

Loading…

Ближайшие Пролёты (ближайшие 24 часа)

TLE

СвежийSource: CelesTrak SupGP

Эпоха: Sep 14, 2026, 21:33 UTC

1 63741C 25088T   26257.89800926  .00001277  00000+0  16715-3 0  2574
2 63741  51.9002 336.3682 0000234 103.0328 163.9817 14.79920954    13

Отслеживайте KUIPER-00028 в реальном времени с AllMySat

Download on the App Store